TimeEDT,TemperatureF,Dew PointF,Humidity,Sea Level PressureIn,VisibilityMPH,Wind Direction,Wind SpeedMPH,Gust SpeedMPH,PrecipitationIn,Events,Conditions,WindDirDegrees,DateUTC
12:53 AM,66.9,60.1,79,30.00,10.0,SSE,6.9,-,N/A,,Clear,150,2013-03-12 04:53:00
1:53 AM,69.1,60.1,73,29.99,10.0,SSE,8.1,-,N/A,,Clear,160,2013-03-12 05:53:00
2:53 AM,70.0,61.0,73,29.99,10.0,SSE,5.8,-,N/A,,Mostly Cloudy,150,2013-03-12 06:53:00
3:53 AM,71.1,63.0,75,29.96,10.0,SSE,10.4,-,N/A,,Partly Cloudy,160,2013-03-12 07:53:00
4:53 AM,70.0,63.0,78,29.94,10.0,SSE,10.4,-,N/A,,Clear,160,2013-03-12 08:53:00
5:53 AM,71.1,63.0,75,29.94,10.0,SSE,11.5,-,N/A,,Clear,160,2013-03-12 09:53:00
6:53 AM,71.1,63.0,75,29.97,10.0,SSE,6.9,-,N/A,,Clear,160,2013-03-12 10:53:00
7:46 AM,69.8,64.4,83,29.97,10.0,South,6.9,-,N/A,,Mostly Cloudy,170,2013-03-12 11:46:00
7:53 AM,71.1,64.9,81,29.97,10.0,South,5.8,-,N/A,,Mostly Cloudy,170,2013-03-12 11:53:00
8:14 AM,71.6,64.4,78,29.97,10.0,SSE,6.9,-,N/A,,Partly Cloudy,160,2013-03-12 12:14:00
8:53 AM,73.9,66.0,76,29.99,10.0,South,12.7,-,N/A,,Clear,170,2013-03-12 12:53:00
9:53 AM,77.0,66.0,69,30.01,10.0,South,17.3,23.0,N/A,,Mostly Cloudy,180,2013-03-12 13:53:00
10:00 AM,75.2,66.2,73,30.01,10.0,South,13.8,23.0,N/A,,Mostly Cloudy,170,2013-03-12 14:00:00
10:07 AM,75.2,66.2,73,30.02,10.0,South,11.5,-,N/A,,Mostly Cloudy,180,2013-03-12 14:07:00
10:53 AM,78.1,66.9,68,30.02,10.0,South,17.3,-,N/A,,Mostly Cloudy,170,2013-03-12 14:53:00
11:50 AM,78.8,68.0,69,30.01,10.0,South,13.8,-,N/A,,Scattered Clouds,190,2013-03-12 15:50:00
11:53 AM,79.0,68.0,69,30.02,10.0,South,12.7,-,N/A,,Scattered Clouds,180,2013-03-12 15:53:00
12:53 PM,80.1,64.9,60,30.00,10.0,South,13.8,23.0,N/A,,Overcast,180,2013-03-12 16:53:00
1:53 PM,80.1,66.0,62,29.98,10.0,SSE,18.4,-,N/A,,Overcast,160,2013-03-12 17:53:00
2:53 PM,80.1,64.9,60,29.97,10.0,South,15.0,-,N/A,,Overcast,190,2013-03-12 18:53:00
3:53 PM,79.0,64.0,60,29.97,10.0,SW,12.7,24.2,N/A,,Overcast,220,2013-03-12 19:53:00
4:53 PM,80.1,64.0,58,29.95,10.0,WSW,13.8,-,N/A,,Overcast,240,2013-03-12 20:53:00
5:53 PM,79.0,63.0,58,29.95,10.0,SSW,13.8,-,N/A,,Overcast,210,2013-03-12 21:53:00
6:53 PM,78.1,64.9,64,29.96,10.0,WSW,9.2,-,N/A,,Overcast,240,2013-03-12 22:53:00
7:53 PM,75.9,62.1,62,29.96,10.0,WSW,6.9,-,N/A,,Clear,240,2013-03-12 23:53:00
8:53 PM,75.0,64.0,69,29.99,10.0,WSW,9.2,-,N/A,,Overcast,240,2013-03-13 00:53:00
9:53 PM,73.0,64.0,73,30.01,10.0,West,6.9,-,N/A,,Clear,260,2013-03-13 01:53:00
10:46 PM,73.4,64.4,73,30.01,10.0,West,6.9,-,N/A,,Mostly Cloudy,270,2013-03-13 02:46:00
10:53 PM,72.0,66.0,81,30.02,10.0,West,8.1,-,N/A,,Mostly Cloudy,270,2013-03-13 02:53:00
11:53 PM,71.1,66.0,84,30.02,10.0,WNW,6.9,-,N/A,,Mostly Cloudy,300,2013-03-13 03:53:00